Location: ?????
(38.2579°N, 22.9711°E)
Time: 14:47:47
(UTC+00:00)

COSMO-SKYMED 1 - Pass Details

Date: 13 December 2025
Orbit: 578 x 580 km, 97.9° (Epoch: 17 January)

Event Time Altitude Azimuth Distance (km) Brightness Sun altitude
Exits shadow 16:23:53 19° 38° (NE) 1,413 3.9 -14.4°
Maximum altitude 16:26:25 39° 98° (E) 873 2.9 -14.8°
Drops below altitude 10° 16:30:15 10° 168° (SSE) 1,884 5.1 -15.6°
Sets 16:32:30 0° 176° (S) 2,778 6.1 -16.0°
